Temp
63 66 64 65 64 64 65 67 67 57 59 59 59 59 59 59 60 61 61 63 64 65 66 67 68 67 66
62 61 62 65 66 64 62 62 65 59 57 58 58 58 58 58 58 58 59 59 61 62 63 64 65 66 66
59 61 61 61 61 61 62 62 62 55 57 57 58 57 57 57 57 57 56 56 57 58 59 60 62 63 64
58 57 58 58 59 59 58 59 61 59 56 57 58 57 56 57 56 54 54 54 56 56 57 56 57 59 61
56 56 56 54 55 58 57 60 60 59 60 61 60 61 60 56 55 53 53 53 54 55 56 56 55 56 58
56 55 56 57 58 57 57 56 54 61 58 57 56 58 59 60 56 54 53 53 53 54 54 54 54 54 55
56 56 56 58 58 56 56 57 57 60 58 56 53 55 60 58 53 52 52 52 52 52 52 52 52 53 53
55 55 52 51 52 54 55 56 57 53 52 50 53 56 56 53 50 51 51 51 50 51 51 50 50 50 51
44 43 43 43 44 47 46 46 47 44 40 43 42 43 46 45 46 47 47 48 46 46 47 47 47 48 49
39 39 39 39 39 38 38 36 36 36 35 37 37 37 38 40 41 42 43 43 44 44 44 44 44 45 44
35 35 35 35 34 35 35 34 34 34 35 35 34 36 34 35 37 38 39 39 40 40 41 42 43 43 44
32 31 31 31 32 32 32 32 33 32 34 34 32 34 33 32 33 34 35 37 39 39 41 41 41 41 41
30 29 31 31 32 31 31 31 31 32 32 32 32 32 32 32 33 34 35 37 38 37 38 39 39 41 38
29 30 31 32 32 32 30 31 31 32 32 32 31 31 31 32 32 31 34 31 36 36 36 37 39 41 40
30 30 31 31 31 31 30 30 29 29 31 33 32 32 32 31 30 32 32 33 35 34 34 35 37 39 40
30 30 29 29 29 30 31 29 29 30 30 32 32 31 32 33 34 32 32 32 34 34 34 33 33 38 39
27 28 29 29 29 29 29 30 29 30 31 32 31 29 27 27 34 37 32 33 33 33 34 33 31 33 36
MSLP
1005.85 1005.66 1005.81 1005.74 1006.07 1006.29 1006.24 1006.40 1006.53 1007.10 1007.42 1007.76 1007.77 1007.70 1007.96 1008.22 1008.31 1008.35 1008.98 1009.14 1009.08 1009.34 1009.15 1009.32 1009.55 1009.86 1010.15
1005.02 1005.16 1005.20 1005.18 1005.41 1005.59 1005.72 1005.84 1006.02 1006.28 1006.60 1006.85 1007.10 1007.13 1007.27 1007.53 1007.53 1007.92 1007.60 1008.25 1008.15 1008.52 1008.15 1008.47 1008.62 1008.85 1009.13
1004.23 1004.50 1004.55 1004.94 1005.07 1005.16 1005.07 1005.17 1005.46 1005.76 1005.98 1006.08 1006.30 1006.48 1006.70 1006.77 1006.89 1006.81 1006.69 1007.27 1007.23 1007.21 1007.02 1007.58 1007.78 1007.94 1008.06
1003.65 1003.94 1004.13 1004.36 1004.57 1004.48 1004.64 1004.73 1004.76 1005.03 1005.24 1005.28 1005.41 1005.69 1006.01 1006.26 1006.16 1005.95 1006.05 1006.45 1006.44 1006.41 1006.42 1006.68 1006.89 1007.04 1007.24
1003.03 1003.47 1003.63 1003.94 1003.92 1004.07 1004.15 1004.12 1004.00 1004.39 1004.56 1004.55 1004.77 1005.11 1005.42 1005.80 1005.78 1005.56 1005.54 1005.49 1005.69 1005.65 1005.82 1006.01 1006.19 1006.37 1006.61
1002.62 1002.86 1003.04 1003.14 1003.22 1003.51 1003.58 1003.74 1003.57 1003.65 1003.72 1003.80 1003.83 1004.29 1004.94 1005.06 1005.00 1004.88 1004.56 1004.67 1004.94 1005.02 1005.18 1005.36 1005.55 1005.72 1005.91
1002.20 1002.28 1002.41 1002.44 1002.78 1002.98 1003.04 1002.96 1002.76 1002.91 1003.43 1002.91 1003.14 1003.54 1004.04 1004.04 1004.38 1004.41 1004.05 1004.24 1004.44 1004.57 1004.79 1004.87 1004.96 1005.14 1005.30
1002.42 1002.53 1002.86 1002.96 1002.97 1002.98 1002.90 1002.77 1002.58 1003.12 1003.38 1003.25 1003.15 1003.49 1004.01 1004.21 1004.22 1003.97 1003.91 1003.97 1004.03 1004.23 1004.37 1004.62 1004.67 1004.80 1004.89
1003.59 1003.69 1003.81 1003.76 1003.50 1003.12 1003.12 1003.36 1003.17 1003.50 1004.25 1004.03 1004.07 1004.10 1004.22 1004.47 1004.74 1004.64 1004.36 1004.18 1004.37 1004.58 1004.82 1005.00 1004.99 1004.86 1004.73
1004.32 1004.38 1004.38 1004.48 1004.41 1004.31 1004.07 1003.89 1004.00 1004.62 1005.32 1005.29 1004.94 1004.91 1005.08 1005.02 1005.05 1005.02 1004.83 1004.89 1004.90 1004.96 1004.97 1005.14 1005.19 1005.08 1005.00
1004.91 1005.11 1005.27 1005.40 1005.47 1005.58 1005.40 1005.01 1005.21 1005.47 1005.88 1005.64 1005.48 1005.25 1005.34 1005.33 1005.37 1005.37 1005.31 1005.38 1005.29 1005.19 1005.26 1005.31 1005.30 1005.34 1005.08
1005.60 1005.88 1005.93 1005.94 1006.03 1006.10 1006.40 1006.09 1005.95 1006.16 1006.15 1005.93 1005.79 1005.83 1005.79 1005.80 1005.68 1005.67 1005.47 1005.38 1005.34 1005.17 1005.22 1005.34 1005.23 1005.09 1005.05
1006.55 1006.73 1006.86 1006.92 1006.62 1006.61 1006.44 1006.25 1006.27 1006.44 1006.40 1006.35 1006.10 1005.84 1006.14 1005.95 1005.54 1005.78 1005.87 1005.56 1005.46 1005.29 1005.24 1005.05 1004.85 1004.75 1004.66
1007.36 1007.31 1007.25 1006.99 1006.89 1006.96 1006.90 1006.77 1006.76 1006.65 1006.59 1006.68 1006.79 1006.75 1006.56 1006.42 1006.35 1006.08 1005.84 1005.60 1005.08 1005.15 1005.10 1004.81 1004.49 1004.28 1004.08
1007.54 1007.51 1007.49 1007.44 1007.32 1007.26 1007.27 1007.24 1007.07 1006.88 1006.66 1006.43 1006.39 1006.33 1006.10 1005.94 1005.73 1005.37 1005.22 1005.02 1004.70 1004.49 1004.35 1003.93 1003.66 1003.56 1003.32
1007.48 1007.59 1007.56 1007.51 1007.50 1007.57 1007.51 1007.41 1007.18 1006.90 1006.63 1006.35 1006.09 1005.71 1005.33 1005.04 1005.00 1004.79 1004.68 1004.46 1004.26 1004.37 1004.34 1003.81 1002.79 1002.94 1002.75
1008.01 1007.68 1007.62 1007.61 1007.52 1007.37 1007.29 1007.16 1006.92 1006.70 1006.51 1006.33 1006.16 1006.02 1005.57 1005.08 1004.58 1004.48 1004.69 1004.46 1004.28 1004.09 1004.08 1003.85 1003.13 1002.59 1002.56
Wind_Speed
8 8 6 8 7 9 10 11 9 15 17 16 16 15 15 15 15 17 17 17 17 21 21 23 23 22 23
10 8 9 10 10 10 7 7 8 9 12 13 13 13 13 14 15 17 16 17 18 21 18 21 20 22 24
10 7 8 5 7 7 7 6 5 8 12 12 14 14 15 15 16 14 14 17 21 20 18 18 19 19 19
9 6 6 5 5 5 6 5 6 5 9 9 7 10 14 13 14 14 15 16 16 16 17 16 16 17 17
7 6 6 4 6 4 6 6 7 5 6 6 6 6 7 12 16 16 15 14 15 15 15 16 16 15 17
7 7 8 7 7 8 8 6 6 7 5 5 5 5 7 7 14 14 11 14 15 15 14 14 14 15 15
8 9 8 9 8 9 9 8 8 3 7 4 4 6 7 6 11 12 10 11 12 13 15 14 13 12 12
7 4 2 3 4 3 4 6 4 2 2 3 2 4 2 3 7 4 6 5 2 1 2 2 2 4 8
16 15 15 15 10 2 3 3 4 1 5 1 2 2 2 2 4 11 13 14 14 12 10 9 7 5 3
5 9 11 11 17 9 3 1 2 2 3 2 1 1 1 1 0 2 3 10 9 9 9 9 9 3 3
5 5 6 7 6 7 7 5 2 2 3 1 2 1 1 1 2 1 3 3 2 3 5 5 5 5 4
5 5 4 5 4 5 6 4 4 3 3 2 1 2 2 2 2 1 1 2 1 4 1 1 5 3 5
5 5 4 3 4 2 4 5 4 5 4 3 2 2 1 2 3 3 4 2 4 1 3 4 4 4 6
4 3 2 4 5 5 5 5 2 2 4 4 2 0 2 4 5 6 5 4 3 6 5 5 5 5 6
4 4 4 4 4 4 3 3 3 2 3 2 1 4 6 6 5 6 6 6 5 5 5 8 8 7 8
3 3 3 3 3 3 2 2 3 3 3 3 2 3 2 3 10 5 4 5 5 4 4 8 10 7 9
2 2 1 0 1 0 1 2 2 3 4 4 4 3 5 5 2 8 3 4 5 6 5 6 10 11 10
Wind_Direction
246 237 226 232 235 230 234 230 231 222 226 230 230 227 230 235 234 234 239 242 239 237 235 236 231 225 223
230 224 226 232 245 234 230 222 229 218 211 221 233 240 237 230 225 230 227 235 235 237 235 239 237 232 226
233 220 228 218 229 231 231 224 227 236 236 239 238 236 240 240 231 225 223 225 226 224 230 232 235 232 235
227 215 217 204 219 233 232 217 232 209 220 228 233 242 246 253 244 235 233 231 234 234 232 227 227 228 228
229 218 213 201 223 221 240 249 231 216 230 223 213 233 250 248 255 241 237 236 237 231 228 228 227 227 230
225 219 222 226 224 228 236 228 249 196 219 222 176 216 236 237 244 243 233 237 241 233 233 233 232 229 235
227 222 227 222 220 227 223 228 240 221 227 234 147 203 226 235 238 235 230 227 227 232 235 229 229 235 239
264 279 343 335 251 281 271 257 256 140 333 251 110 224 183 102 34 98 96 94 113 110 12 333 320 271 256
78 70 55 36 10 235 214 214 252 121 18 15 22 341 346 92 85 75 75 82 76 62 55 41 29 29 46
51 42 44 35 31 33 19 74 68 69 7 289 292 51 239 24 155 44 80 51 50 41 50 33 9 359 333
65 50 44 42 34 24 24 42 25 78 353 20 4 28 102 337 327 27 31 359 7 54 11 7 19 348 303
63 49 47 40 33 37 21 18 42 46 11 17 72 11 21 337 283 335 288 324 55 337 336 299 312 286 279
58 55 41 27 44 43 30 28 58 41 31 18 29 21 316 283 317 312 327 288 326 80 320 311 307 302 294
46 47 33 32 43 43 29 14 22 20 48 42 61 184 264 253 262 269 273 291 291 305 293 283 288 293 292
50 40 37 28 29 22 26 17 33 351 338 316 258 232 226 226 259 257 269 273 283 301 314 312 307 305 299
72 48 43 28 18 2 358 341 339 332 318 311 310 328 313 242 218 271 286 286 291 297 297 308 300 308 304
52 92 103 83 54 89 360 346 342 331 325 335 327 326 316 311 298 217 260 288 300 300 294 298 299 300 297